Weather History for KMER - May, 2013

Change the Weather History Date:

Monday, May 13, 2013

  Actual Average (KMCE) Record (KMCE)
Temperature  
Mean Temperature 78 °F 66 °F  
Max Temperature 96 °F 82 °F 97 °F (2013)
Min Temperature 59 °F 51 °F 46 °F (2007)
Degree Days  
Heating Degree Days 0    
Month to date heating degree days  
Since 1 July heating degree days  
Cooling Degree Days 12    
Month to date cooling degree days  
Year to date cooling degree days  
Growing Degree Days 28 (Base 50)    
Moisture  
Dew Point 44 °F    
Average Humidity 41    
Maximum Humidity 64    
Minimum Humidity 12    
Precipitation  
Precipitation 0.00 in 0.02 in 0.03 in (1991)
Month to date precipitation 0.36  
Year to date precipitation 8.33  
Snow  
Snow 0.00 in - - ()
Month to date snowfall  
Since 1 July snowfall  
Snow Depth -    
Sea Level Pressure  
Sea Level Pressure 29.96 in    
Wind  
Wind Speed 8 mph (North)    
Max Wind Speed 17 mph    
Max Gust Speed -    
Visibility 10 miles    
Events      
T = Trace of Precipitation, MM = Missing Value Source: NWS Daily Summary

Daily Weather History Graph

Daily Weather History Graph

Search for Another Location

Airport or City:

Trip Planner

Search our weather history database for the weather conditions in past years. The results will help you decide how hot, cold, wet, or windy it might be!

Date:

Astronomy

May. 13, 2013 Rise Set
Actual Time 5:54 AM PDT 8:02 PM PDT
Civil Twilight 5:25 AM PDT 8:32 PM PDT
Nautical Twilight 4:50 AM PDT 9:07 PM PDT
Astronomical Twilight 4:11 AM PDT 9:46 PM PDT
Moon 8:45 AM PDT (5/13) 11:15 PM PDT (5/13)
Length of Visible Light 15h 06m
Length of Day
14h 08m
Waxing Crescent, 13% of the Moon is Illuminated
May 13
Waxing Crescent
May 17
First Quarter
May 24
Full
May 31
Last Quarter
Jun 8
New

Hourly Weather History & Observations

Time (PDT) Temp. Dew Point Humidity Pressure Visibility Wind Dir Wind Speed Gust Speed Precip Events Conditions
12:15 AM 68.0 °F 42.8 °F 40% 30.00 in 10.0 mi North - - N/A   Clear
12:35 AM 68.0 °F 42.8 °F 40% 29.99 in 10.0 mi North 8.1 mph - N/A   Clear
12:55 AM 66.2 °F 41.0 °F 40% 29.99 in 10.0 mi NNE 6.9 mph - N/A   Clear
1:15 AM 66.2 °F 39.2 °F 37% 29.99 in 10.0 mi North - - N/A   Clear
1:35 AM 66.2 °F 39.2 °F 37% 29.99 in 10.0 mi North - - N/A   Clear
1:55 AM 64.4 °F 39.2 °F 40% 29.98 in 10.0 mi North - - N/A   Clear
2:15 AM 62.6 °F 41.0 °F 45% 29.98 in 10.0 mi North - - N/A   Clear
2:35 AM 64.4 °F 41.0 °F 42% 29.98 in 10.0 mi North - - N/A   Clear
2:55 AM 62.6 °F 41.0 °F 45% 29.98 in 10.0 mi North 5.8 mph - N/A   Clear
3:15 AM 62.6 °F 42.8 °F 48% 29.98 in 10.0 mi North - - N/A   Clear
3:35 AM 60.8 °F 41.0 °F 48% 29.98 in 10.0 mi North - - N/A   Clear
3:55 AM 62.6 °F 41.0 °F 45% 29.97 in 10.0 mi North - - N/A   Clear
4:15 AM 60.8 °F 41.0 °F 48% 29.98 in 10.0 mi North - - N/A   Clear
4:35 AM 60.8 °F 41.0 °F 48% 29.97 in 10.0 mi North - - N/A   Clear
4:55 AM 60.8 °F 41.0 °F 48% 29.97 in 10.0 mi North - - N/A   Clear
5:15 AM 60.8 °F 41.0 °F 48% 29.97 in 10.0 mi North 6.9 mph - N/A   Clear
5:35 AM 60.8 °F 42.8 °F 52% 29.98 in 10.0 mi North - - N/A   Clear
5:55 AM 60.8 °F 42.8 °F 52% 29.99 in 10.0 mi North 6.9 mph - N/A   Clear
6:15 AM 59.0 °F 42.8 °F 55% 29.99 in 10.0 mi North 5.8 mph - N/A   Clear
6:35 AM 62.6 °F 42.8 °F 48% 30.00 in 10.0 mi NNW 5.8 mph - N/A   Clear
6:45 AM 64.4 °F 42.8 °F 45% 30.01 in 10.0 mi NW 6.9 mph - N/A   Clear
6:55 AM 66.2 °F 42.8 °F 43% 30.01 in 10.0 mi NNW 5.8 mph - N/A   Clear
7:45 AM 69.8 °F 44.6 °F 40% 30.03 in 10.0 mi NW 5.8 mph - N/A   Clear
8:45 AM 75.2 °F 44.6 °F 34% 30.03 in 10.0 mi Calm Calm - N/A   Clear
9:45 AM 82.4 °F 44.6 °F 26% 30.03 in 10.0 mi Variable 4.6 mph - N/A   Clear
10:45 AM 86.0 °F 42.8 °F 22% 30.03 in 10.0 mi NW 11.5 mph - N/A   Clear
11:45 AM 87.8 °F 41.0 °F 19% 30.03 in 10.0 mi NW 10.4 mph - N/A   Clear
1:45 PM 93.2 °F 37.4 °F 14% 29.99 in 10.0 mi NNW 8.1 mph - N/A   Clear
2:45 PM 96.8 °F 35.6 °F 12% 29.97 in 10.0 mi North 11.5 mph - N/A   Clear
5:45 PM 93.2 °F 42.8 °F 17% 29.89 in 10.0 mi North 17.3 mph - N/A   Clear
6:45 PM 73.4 °F 44.6 °F 36% 29.88 in 10.0 mi North 17.3 mph - N/A   Clear
7:45 PM 84.2 °F 46.4 °F 27% 29.87 in 10.0 mi NNW 17.3 mph - N/A   Clear
8:45 PM 75.2 °F 50.0 °F 41% 29.88 in 10.0 mi NNW 17.3 mph - N/A   Clear
9:15 PM 77.0 °F 53.6 °F 44% 29.89 in 10.0 mi North 12.7 mph - N/A   Clear
9:35 PM 75.2 °F 51.8 °F 44% 29.90 in 10.0 mi North 10.4 mph - N/A   Clear
9:55 PM 75.2 °F 50.0 °F 41% 29.90 in 10.0 mi North 10.4 mph - N/A   Clear
10:15 PM 73.4 °F 51.8 °F 47% 29.90 in 10.0 mi NNE 11.5 mph - N/A   Clear
10:35 PM 73.4 °F 51.8 °F 47% 29.90 in 10.0 mi NNE 8.1 mph - N/A   Clear
10:55 PM 71.6 °F 51.8 °F 50% 29.90 in 10.0 mi North 5.8 mph - N/A   Clear
11:15 PM 69.8 °F 53.6 °F 56% 29.90 in 10.0 mi North 5.8 mph - N/A   Clear
11:35 PM 66.2 °F 53.6 °F 64% 29.90 in 10.0 mi North 5.8 mph - N/A   Clear
11:55 PM 66.2 °F 53.6 °F 64% 29.89 in 10.0 mi North 8.1 mph - N/A   Clear